Weather History for McComb, MS

Change the Weather History Date:

Friday, July 4, 2014

  Actual Average Record
Temperature  
Mean Temperature 77 °F -  
Max Temperature 87 °F 92 °F 100 °F (1969)
Min Temperature 68 °F 69 °F 65 °F (1974)
Cooling Degree Days 12    
Growing Degree Days 27 (Base 50)    
Moisture  
Dew Point 62 °F    
Average Humidity 62    
Maximum Humidity 84    
Minimum Humidity 37    
Precipitation  
Precipitation 0.00 in - - ()
Sea Level Pressure  
Sea Level Pressure 30.16 in    
Wind  
Wind Speed 7 mph (NNE)    
Max Wind Speed 13 mph    
Max Gust Speed 16 mph    
Visibility 10 miles    
Events      
Averages and records for this station are not official NWS values.
T = Trace of Precipitation, MM = Missing Value Source: NWS Daily Summary

Daily Weather History Graph

Daily Weather History Graph

Search for Another Location

Airport:

Trip Planner

Search our weather history database for the weather conditions in past years. The results will help you decide how hot, cold, wet, or windy it might be!

Date:

Astronomy

Jul. 04, 2014 Rise Set
Actual Time 6:02 AM CDT 8:09 PM CDT
Civil Twilight 5:35 AM CDT 8:37 PM CDT
Nautical Twilight 5:01 AM CDT 9:11 PM CDT
Astronomical Twilight 4:24 AM CDT 9:47 PM CDT
Moon 12:31 PM CDT (7/4) No Moon Set
Length of Visible Light 15h 02m
Length of Day
14h 06m
Waxing Crescent, 42% of the Moon is Illuminated
Jul 4
Waxing Crescent
Jul 5
First Quarter
Jul 12
Full
Jul 18
Last Quarter
Jul 26
New

Hourly Weather History & Observations

Time (CDT) Temp. Heat Index Dew Point Humidity Pressure Visibility Wind Dir Wind Speed Gust Speed Precip Events Conditions
12:53 AM 75.9 °F - 66.0 °F 71% 30.13 in 10.0 mi North 8.1 mph - N/A   Clear
1:53 AM 73.9 °F - 64.0 °F 71% 30.13 in 10.0 mi North 6.9 mph - N/A   Clear
2:53 AM 72.0 °F - 64.0 °F 76% 30.13 in 10.0 mi North 6.9 mph - N/A   Clear
3:53 AM 71.1 °F - 63.0 °F 75% 30.12 in 10.0 mi North 8.1 mph - N/A   Clear
4:53 AM 70.0 °F - 63.0 °F 78% 30.14 in 10.0 mi North 5.8 mph - N/A   Clear
5:53 AM 68.0 °F - 63.0 °F 84% 30.14 in 10.0 mi North 6.9 mph - N/A   Clear
6:53 AM 69.1 °F - 63.0 °F 81% 30.16 in 10.0 mi NNE 3.5 mph - N/A   Clear
7:53 AM 72.0 °F - 62.1 °F 71% 30.19 in 10.0 mi NNE 6.9 mph - N/A   Clear
8:53 AM 75.0 °F - 63.0 °F 66% 30.20 in 10.0 mi ENE 6.9 mph - N/A   Clear
9:53 AM 78.1 °F - 63.0 °F 60% 30.20 in 10.0 mi Variable 6.9 mph - N/A   Clear
10:53 AM 79.0 °F - 62.1 °F 56% 30.20 in 10.0 mi East 6.9 mph - N/A   Partly Cloudy
11:53 AM 81.0 °F 81.3 °F 59.0 °F 47% 30.20 in 10.0 mi ENE 12.7 mph 16.1 mph N/A   Scattered Clouds
12:53 PM 82.0 °F 82.7 °F 61.0 °F 49% 30.20 in 10.0 mi East 6.9 mph - N/A   Clear
1:53 PM 82.9 °F 83.2 °F 60.1 °F 46% 30.19 in 10.0 mi North - - N/A   Clear
2:53 PM 84.9 °F 85.0 °F 61.0 °F 44% 30.17 in 10.0 mi NW 6.9 mph - N/A   Clear
3:53 PM 86.0 °F 85.4 °F 59.0 °F 40% 30.16 in 10.0 mi NNE 4.6 mph - N/A   Clear
4:53 PM 86.0 °F 84.9 °F 57.0 °F 37% 30.15 in 10.0 mi NNW 5.8 mph - N/A   Clear
5:53 PM 86.0 °F 85.0 °F 57.9 °F 38% 30.14 in 10.0 mi NNE 5.8 mph - N/A   Clear
6:53 PM 84.9 °F 85.0 °F 61.0 °F 44% 30.14 in 10.0 mi Variable 4.6 mph - N/A   Clear
7:53 PM 81.0 °F 81.9 °F 62.1 °F 52% 30.13 in 10.0 mi North 3.5 mph - N/A   Clear
8:53 PM 73.0 °F - 64.0 °F 73% 30.14 in 10.0 mi Calm Calm - N/A   Clear
9:53 PM 75.0 °F - 63.0 °F 66% 30.14 in 10.0 mi North 3.5 mph - N/A   Clear
10:53 PM 73.0 °F - 63.0 °F 71% 30.17 in 10.0 mi North 5.8 mph - N/A   Clear
11:53 PM 69.1 °F - 63.0 °F 81% 30.18 in 10.0 mi North 5.8 mph - N/A   Clear